This is the latest recevied weather packets stored in our database for station/object K8GLX. If no packets are shown the sender has not sent any weather packets the latest 10 day(s).
| Time | Temp. | Humidity | Pressure | Rain* | Wind** | Luminosity | Snow |
|---|---|---|---|---|---|---|---|
| 1777397660 | 20.56° C | 66% | 1011.2 hPa | 0 mm | - | 218 W/m² | - |
| 1777397228 | 21.11° C | 64% | 1011 hPa | 0 mm | - | 903 W/m² | - |
| 1777396933 | 21.11° C | 66% | 1011.1 hPa | 0 mm | - | 867 W/m² | - |
| 1777396628 | 21.11° C | 66% | 1011 hPa | 0 mm | - | 206 W/m² | - |
| 1777396334 | 21.11° C | 67% | 1011 hPa | 0 mm | - | 342 W/m² | - |
| 1777396028 | 20.56° C | 68% | 1011 hPa | 0 mm | - | 835 W/m² | - |
| 1777395733 | 20.56° C | 68% | 1011 hPa | 0 mm | - | 824 W/m² | - |
| 1777395428 | 20.56° C | 69% | 1011.1 hPa | 0 mm | - | 891 W/m² | - |
| 1777395262 | 20.56° C | 68% | 1010.9 hPa | 0 mm | - | 866 W/m² | - |
| 1777394828 | 20.56° C | 69% | 1011.2 hPa | 0 mm | - | 933 W/m² | - |
| 1777394534 | 20° C | 69% | 1011 hPa | 0 mm | - | 800 W/m² | - |
| 1777394228 | 19.44° C | 71% | 1011.1 hPa | 0 mm | - | 897 W/m² | - |
| 1777393933 | 20° C | 70% | 1011 hPa | 0 mm | - | 898 W/m² | - |
| 1777393628 | 20° C | 72% | 1010.8 hPa | 0 mm | - | 847 W/m² | - |
| 1777393334 | 19.44° C | 72% | 1011.1 hPa | 0 mm | - | 982 W/m² | - |
| 1777393028 | 19.44° C | 73% | 1011.3 hPa | 0 mm | - | 491 W/m² | - |
| 1777392734 | 19.44° C | 73% | 1011 hPa | 0 mm | - | 312 W/m² | - |
| 1777392428 | 18.89° C | 74% | 1011.1 hPa | 0 mm | - | 416 W/m² | - |
| 1777392134 | 18.89° C | 74% | 1011.1 hPa | 0 mm | - | 253 W/m² | - |
| 1777391828 | 18.89° C | 73% | 1011.1 hPa | 0 mm | - | 271 W/m² | - |
| 1777391534 | 18.33° C | 74% | 1011 hPa | 0 mm | - | 815 W/m² | - |
| 1777391228 | 17.78° C | 74% | 1011.1 hPa | 0 mm | - | 816 W/m² | - |
| 1777390934 | 17.78° C | 75% | 1011.3 hPa | 0 mm | - | 376 W/m² | - |
| 1777390628 | 17.78° C | 75% | 1011.3 hPa | 0 mm | - | 323 W/m² | - |
| 1777390333 | 17.78° C | 75% | 1011.2 hPa | 0 mm | - | 427 W/m² | - |
* Rain latest hour (hover to see other rain measurements)
** Current wind speed in m/s (hover to see current wind gust speed)